This demonstration page uses our WeatherBlox Daily Observations layout. Learn more.

41.55636, -103.73856

Hourly Observations for June 30, 2017

Temp ( °F °C ) Dew Point ( °F °C ) Humidity (%) Winds ( mph kmh ) Pressure ( in mb ) Visibility ( mi km ) Precip ( " mm )
12:53 am 00:53 Mostly Cloudy 58 14.4 51 10.6 78 78 WSW 3 6 30.04 1017 10 16.0934 0 0
1:53 am 01:53 Cloudy 57 13.9 49 9.4 74 74 WNW 7 11 30.02 1017 10 16.0934 0 0
2:53 am 02:53 Clear 53 11.7 48 8.9 83 83 WNW 6 9 30.03 1017 10 16.0934 0 0
3:53 am 03:53 Mostly Cloudy 53 11.7 49 9.4 86 86 W 6 9 30.05 1018 10 16.0934 0 0
4:53 am 04:53 Cloudy 53 11.7 49 9.4 86 86 WNW 7 11 30.07 1018 10 16.0934 0 0
5:53 am 05:53 Cloudy 54 12.2 48 8.9 80 80 W 6 9 30.08 1019 10 16.0934 0 0
6:53 am 06:53 Mostly Cloudy 56 13.3 49 9.4 77 77 W 9 15 30.09 1019 10 16.0934 0 0
7:53 am 07:53 Partly Cloudy 58 14.4 49 9.4 72 72 W 8 13 30.11 1020 10 16.0934 0 0
8:53 am 08:53 Sunny 62 16.7 50 10 65 65 W 6 9 30.12 1020 10 16.0934 0 0
9:53 am 09:53 Sunny 65 18.3 49 9.4 56 56 S 7 11 30.1 1019 10 16.0934 0 0
10:53 am 10:53 Mostly Cloudy 68 20 46 7.8 45 45 Calm 30.09 1019 10 16.0934 0 0
11:53 am 11:53 Mostly Sunny 71 21.7 46 7.8 41 41 VRB 5 7 30.08 1019 10 16.0934 0 0
12:53 pm 12:53 Cloudy 72 22.2 45 7.2 38 38 VRB 3 6 30.06 1018 10 16.0934 0 0
1:53 pm 13:53 Mostly Cloudy 73 22.8 42 5.6 33 33 VRB 7 11 30.05 1018 10 16.0934 0 0
2:53 pm 14:53 Mostly Sunny 75 23.9 40 4.4 28 28 VRB 3 6 30.04 1017 10 16.0934 0 0
3:53 pm 15:53 Sunny 78 25.6 40 4.4 26 26 NNW 12 19 30.01 1016 10 16.0934 0 0
4:53 pm 16:53 Sunny 79 26.1 39 3.9 24 24 NW 6 9 30 1016 10 16.0934 0 0
5:53 pm 17:53 Sunny 79 26.1 38 3.3 23 23 NW 13 20 29.98 1015 10 16.0934 0 0
6:53 pm 18:53 Sunny 78 25.6 40 4.4 26 26 NW 6 9 29.99 1016 10 16.0934 0 0
7:53 pm 19:53 Sunny 74 23.3 45 7.2 36 36 N 3 6 30 1016 10 16.0934 0 0
8:53 pm 20:53 Clear 65 18.3 47 8.3 52 52 E 8 13 30.02 1017 10 16.0934 0 0
9:53 pm 21:53 Clear 64 17.8 46 7.8 52 52 NE 7 11 30.04 1017 10 16.0934 0 0
10:53 pm 22:53 Clear 60 15.6 47 8.3 62 62 Calm 30.06 1018 10 16.0934 0 0
11:53 pm 23:53 Clear 58 14.4 47 8.3 67 67 E 5 7 30.04 1017 10 16.0934 0 0

Powered by AerisWeather